Location: Krasnoyarskiy Pitomnik
(51.1333°N, 71.6167°E)
Time: 22:04:40
(UTC+00:00)

A-11 Canister half - Pass Details

Date: 21 April 2024
Orbit: 1525 x 1683 km, 47.3° (Epoch: 19 May)

Event Time Altitude Azimuth Distance (km) Brightness Sun altitude
Rises 08:33:13 0° 287° (WNW) 4,940 11.8 47.6°
Reaches altitude 10° 08:37:46 10° 270° (W) 3,939 11.6 47.2°
Maximum altitude 08:43:46 18° 233° (SW) 3,323 11.9 46.7°
Drops below altitude 10° 08:49:42 10° 196° (SSW) 3,877 12.0 46.2°
Sets 08:54:10 0° 178° (S) 4,832 12.1 45.8°
